TimeEDT,TemperatureF,Dew PointF,Humidity,Sea Level PressureIn,VisibilityMPH,Wind Direction,Wind SpeedMPH,Gust SpeedMPH,PrecipitationIn,Events,Conditions,WindDirDegrees,DateUTC
12:15 AM,23.0,19.4,86,29.61,9.0,WNW,21.9,31.1,N/A,,Overcast,300,2013-04-01 04:15:00
12:35 AM,23.0,19.4,86,29.62,9.0,WNW,18.4,25.3,N/A,,Overcast,300,2013-04-01 04:35:00
12:55 AM,23.0,19.4,86,29.63,5.0,WNW,19.6,29.9,N/A,,Overcast,300,2013-04-01 04:55:00
1:15 AM,21.2,19.4,93,29.63,4.0,WNW,19.6,26.5,N/A,,Overcast,300,2013-04-01 05:15:00
1:35 AM,21.2,19.4,93,29.63,7.0,WNW,19.6,26.5,N/A,,Overcast,300,2013-04-01 05:35:00
1:55 AM,21.2,19.4,93,29.64,3.0,WNW,20.7,26.5,N/A,,Overcast,300,2013-04-01 05:55:00
2:15 AM,21.2,19.4,93,29.65,5.0,NW,19.6,29.9,N/A,,Overcast,310,2013-04-01 06:15:00
2:35 AM,21.2,17.6,86,29.66,5.0,NW,18.4,34.5,N/A,,Overcast,310,2013-04-01 06:35:00
2:55 AM,21.2,17.6,86,29.67,1.5,NW,18.4,32.2,N/A,,Overcast,310,2013-04-01 06:55:00
3:15 AM,19.4,17.6,93,29.67,1.5,NW,18.4,23.0,N/A,,Overcast,310,2013-04-01 07:15:00
3:35 AM,19.4,17.6,93,29.68,1.8,NW,23.0,32.2,N/A,,Overcast,320,2013-04-01 07:35:00
3:55 AM,19.4,19.4,100,29.69,3.0,NW,15.0,24.2,N/A,,Overcast,320,2013-04-01 07:55:00
4:15 AM,19.4,17.6,93,29.71,2.0,NW,13.8,23.0,N/A,,Overcast,320,2013-04-01 08:15:00
4:35 AM,19.4,17.6,93,29.71,3.0,NW,18.4,-,N/A,,Overcast,320,2013-04-01 08:35:00
4:55 AM,19.4,17.6,93,29.72,2.5,NW,18.4,27.6,N/A,,Overcast,320,2013-04-01 08:55:00
5:15 AM,19.4,17.6,93,29.73,1.8,NW,20.7,26.5,N/A,,Overcast,320,2013-04-01 09:15:00
5:35 AM,19.4,17.6,93,29.74,2.0,NNW,18.4,25.3,N/A,,Overcast,330,2013-04-01 09:35:00
5:55 AM,17.6,17.6,100,29.75,1.5,NNW,20.7,26.5,N/A,,Overcast,330,2013-04-01 09:55:00
6:15 AM,17.6,17.6,100,29.76,1.5,NNW,17.3,24.2,N/A,,Overcast,330,2013-04-01 10:15:00
6:35 AM,17.6,17.6,100,29.77,1.8,NNW,16.1,26.5,N/A,,Overcast,330,2013-04-01 10:35:00
6:55 AM,17.6,15.8,93,29.78,2.5,NW,17.3,21.9,N/A,,Overcast,320,2013-04-01 10:55:00
7:15 AM,17.6,15.8,93,29.79,4.0,NNW,19.6,26.5,N/A,,Overcast,330,2013-04-01 11:15:00
7:35 AM,17.6,15.8,93,29.80,2.5,NW,13.8,21.9,N/A,,Overcast,320,2013-04-01 11:35:00
7:55 AM,17.6,15.8,93,29.81,3.0,NNW,12.7,-,N/A,,Overcast,330,2013-04-01 11:55:00
8:15 AM,17.6,15.8,93,29.82,5.0,NNW,9.2,-,N/A,,Overcast,330,2013-04-01 12:15:00
8:35 AM,17.6,15.8,93,29.83,2.5,NNW,8.1,-,N/A,,Overcast,330,2013-04-01 12:35:00
8:55 AM,17.6,15.8,93,29.83,2.0,NNW,11.5,16.1,N/A,,Overcast,330,2013-04-01 12:55:00
9:15 AM,17.6,15.8,93,29.84,2.0,NNW,10.4,-,N/A,,Overcast,330,2013-04-01 13:15:00
9:35 AM,17.6,15.8,93,29.84,1.5,NW,5.8,-,N/A,,Overcast,310,2013-04-01 13:35:00
9:55 AM,19.4,17.6,93,29.85,1.0,NW,12.7,-,N/A,,Overcast,320,2013-04-01 13:55:00
10:15 AM,19.4,17.6,93,29.85,1.8,NW,12.7,-,N/A,,Overcast,310,2013-04-01 14:15:00
10:35 AM,21.2,15.8,80,29.85,1.8,NW,17.3,25.3,N/A,,Overcast,320,2013-04-01 14:35:00
10:55 AM,21.2,15.8,80,29.86,2.5,NW,16.1,24.2,N/A,,Overcast,310,2013-04-01 14:55:00
11:15 AM,21.2,15.8,80,29.86,4.0,NW,20.7,26.5,N/A,,Overcast,320,2013-04-01 15:15:00
11:35 AM,21.2,14.0,74,29.86,3.0,NW,20.7,27.6,N/A,,Overcast,320,2013-04-01 15:35:00
11:55 AM,23.0,14.0,68,29.87,3.0,NW,20.7,27.6,N/A,,Overcast,320,2013-04-01 15:55:00
12:15 PM,23.0,15.8,74,29.88,5.0,NW,20.7,25.3,N/A,,Overcast,320,2013-04-01 16:15:00
12:35 PM,21.2,15.8,80,29.89,4.0,NW,17.3,23.0,N/A,,Overcast,310,2013-04-01 16:35:00
12:55 PM,23.0,15.8,74,29.88,4.0,NNW,19.6,25.3,N/A,,Overcast,330,2013-04-01 16:55:00
1:15 PM,21.2,15.8,80,29.88,2.0,NW,23.0,-,N/A,,Overcast,310,2013-04-01 17:15:00
1:35 PM,24.8,15.8,69,29.89,2.5,NW,19.6,28.8,N/A,,Overcast,310,2013-04-01 17:35:00
1:55 PM,24.8,15.8,69,29.89,4.0,NW,21.9,28.8,N/A,,Overcast,320,2013-04-01 17:55:00
2:15 PM,23.0,15.8,74,29.90,1.5,NNW,16.1,24.2,N/A,,Overcast,330,2013-04-01 18:15:00
2:55 PM,21.2,17.6,86,29.91,2.5,WNW,16.1,21.9,N/A,,Overcast,290,2013-04-01 18:55:00
3:15 PM,21.2,17.6,86,29.91,2.0,WNW,17.3,31.1,N/A,,Overcast,290,2013-04-01 19:15:00
3:35 PM,23.0,15.8,74,29.90,0.5,WNW,29.9,36.8,N/A,,Overcast,290,2013-04-01 19:35:00
3:55 PM,24.8,14.0,64,29.92,3.0,NW,21.9,31.1,N/A,,Overcast,310,2013-04-01 19:55:00
4:15 PM,23.0,15.8,74,29.92,5.0,NW,21.9,28.8,N/A,,Overcast,310,2013-04-01 20:15:00
4:35 PM,23.0,15.8,74,29.93,3.0,WNW,20.7,28.8,N/A,,Mostly Cloudy,300,2013-04-01 20:35:00
4:55 PM,21.2,15.8,80,29.93,4.0,WNW,21.9,29.9,N/A,,Overcast,300,2013-04-01 20:55:00
5:15 PM,21.2,17.6,86,29.94,0.5,West,18.4,26.5,N/A,,Overcast,280,2013-04-01 21:15:00
5:55 PM,21.2,15.8,80,29.95,3.0,WNW,23.0,29.9,N/A,,Overcast,290,2013-04-01 21:55:00
6:15 PM,21.2,17.6,86,29.96,2.0,WNW,19.6,29.9,N/A,,Overcast,290,2013-04-01 22:15:00
6:35 PM,21.2,15.8,80,29.96,5.0,WNW,19.6,23.0,N/A,,Overcast,290,2013-04-01 22:35:00
6:55 PM,21.2,17.6,86,29.97,1.8,NW,13.8,33.4,N/A,,Overcast,310,2013-04-01 22:55:00
7:15 PM,21.2,15.8,80,29.97,7.0,West,20.7,26.5,N/A,,Overcast,280,2013-04-01 23:15:00
7:35 PM,19.4,15.8,86,29.98,9.0,WNW,16.1,24.2,N/A,,Overcast,290,2013-04-01 23:35:00
7:55 PM,19.4,15.8,86,29.98,7.0,WNW,16.1,-,N/A,,Overcast,290,2013-04-01 23:55:00
8:15 PM,19.4,15.8,86,29.98,9.0,WNW,15.0,-,N/A,,Overcast,290,2013-04-02 00:15:00
8:35 PM,19.4,17.6,93,29.98,4.0,West,15.0,-,N/A,,Overcast,280,2013-04-02 00:35:00
8:55 PM,19.4,17.6,93,29.98,10.0,West,9.2,-,N/A,,Overcast,280,2013-04-02 00:55:00
9:15 PM,19.4,17.6,93,29.99,4.0,West,8.1,-,N/A,,Overcast,270,2013-04-02 01:15:00
9:35 PM,19.4,17.6,93,29.99,4.0,West,10.4,-,N/A,,Overcast,260,2013-04-02 01:35:00
9:55 PM,19.4,17.6,93,29.99,3.0,West,6.9,-,N/A,,Overcast,260,2013-04-02 01:55:00
10:15 PM,19.4,17.6,93,29.99,2.5,WSW,6.9,-,N/A,,Overcast,250,2013-04-02 02:15:00
10:35 PM,19.4,19.4,100,29.99,2.0,West,8.1,-,N/A,,Overcast,260,2013-04-02 02:35:00
10:55 PM,19.4,19.4,100,29.99,2.5,West,9.2,-,N/A,,Overcast,260,2013-04-02 02:55:00
11:15 PM,19.4,19.4,100,29.99,1.5,West,8.1,-,N/A,,Overcast,270,2013-04-02 03:15:00
11:35 PM,19.4,19.4,100,29.99,1.0,West,6.9,-,N/A,,Overcast,270,2013-04-02 03:35:00
11:55 PM,19.4,19.4,100,29.99,1.0,West,8.1,-,N/A,,Overcast,260,2013-04-02 03:55:00